sat.trackr.live / text

‹ back to catalog

ONEWEB-0222

NORAD 48775 · 2021-045J

PAYLOAD ACTIVE UNKNOWN

§ Identity

Operator
Country
UK
Launch date
2021-05-28
Launch site
VOSTO
Launch vehicle
Mass (kg)
RCS (m²)

Purposes: comms

External: N2YO · Heavens-Above · Gunter

§ Orbital elements

Epoch: 2026-05-25T01:53:42.232128Z

Period
109.46 min
Inclination
87.8998°
Eccentricity
0.0001629
Mean motion
13.15547065 rev/d
Perigee alt
1,200.5 km
Apogee alt
1,203.0 km
Semi-major
7,579.9 km
B*
4.0802e-4
RAAN
263.7894°
Arg perigee
99.1969°
Mean anomaly
260.9346°
Rev number
24,136

§ Raw data

ONEWEB-02221 48775U 21045J   26145.07896102  .00000166  00000+0  40802-3 0  99932 48775  87.8998 263.7894 0001629  99.1969 260.9346 13.15547065241365

JSON: /api/v1/satellites/48775 · /tle

For live sub-satellite position, see the globe view (requires WebGL).

§ Visibility from observer

Set your observer location to see the next 7 days of passes ≥ 10°. The values pass through the URL so the page stays shareable.

No JS? Fill the form by hand. The geolocation button needs JavaScript.